Tracking 32941 objects as of 15-Jan-2026
HD Live streaming from Space Station
objects crossing your sky now

COSMOS 1553

Track COSMOS 1553 now!
10-day predictions
COSMOS 1553 is classified as:


NORAD ID: 14973
Int'l Code: 1984-046A
Perigee: 963.3 km
Apogee: 1,010.0 km
Inclination: 82.9 °
Period: 104.7 minutes
Semi major axis: 7357 km
RCS: 2.1904 m2 (large)
Launch date: May 17, 1984
Source: Commonwealth of Independent States (former USSR) (CIS)
Launch site: PLESETSK MISSILE AND SPACE COMPLEX (PKMTR)
Your satellite tracking list
Your tracking list is empty




NASA's NSSDC Master Catalog

Two Line Element Set (TLE):
1 14973U 84046A   26014.98583220  .00000065  00000-0  51301-4 0  9991
2 14973  82.9364   5.9031 0031760 343.4674  70.2023 13.75605954 90664
Source of the keplerian elements: AFSPC